COSMOS 2251 DEB

Satellite information

Favourite Embed

Satellite Type and Status

DEBRISIN ORBIT

Key statistics

Satellite COSMOS 2251 DEB at a glance.

Uptime

11868

Days in orbit

Revolutions

≈ 14.0

Per day

Orbit

LEO

Low Earth Orbit

Inclination

74.0

Latest

Satellite identification and parameters

Extended collection of information and parameters for COSMOS 2251 DEB.

Object identification

Identified? True

Debris? True

Object name: COSMOS 2251 DEB

International designator: 1993-036KR

Object number (NORAD): 34120

Object ID (CCSDS): 34120

Country: COMMONWEALTH OF INDEPENDENT STATES (CIS)

Current information (Y/N): Y

RCS size: SMALL

Orbital parameters

Period: 102.954 minutes

Inclination: 73.9913 deg

SMA: 7276.498 km

Apoapsis: 1030.746 km

Periapsis: 765.98 km

RAAN: 217.3425 deg

Eccentricy: 0.01819321

Argument of periapsis: 45.1678 deg

Mean anomaly: 103.7932 deg

Mean motion: 13.98682417 rev/day

Mean motion (dot): 0.00000778 rev/day2

B* drag term: 0.0004839817 1/REarth

Two-line elements (TLE)

Creation date: Dec. 12, 2025, 10:14 a.m.

Reference frame: TEME

Reference center: EARTH

Epoch: Dec. 12, 2025, 2:12 a.m. UTC

TLE line 0: 0 COSMOS 2251 DEB

TLE line 1: 1 34120U 93036KR 25346.09212723 .00000778 00000-0 48398-3 0 9994

TLE line 2: 2 34120 73.9913 217.3425 0181932 45.1678 103.7932 13.98682417859717

Live tracking on map

Real-time ground track for satellite COSMOS 2251 DEB.

In-orbit conjunctions

A list of the most updated potential collisions computed for object COSMOS 2251 DEB.

Target Orbit TCA Probability of collision Miss distance Type
SL-16 R/B SSO 2025-11-21 16:28:33 0.0004187 635.0 (m) ROCKET BODY
CZ-6A DEB SSO 2024-11-11 11:19:42 0.0002209621 944.0 (m) DEBRIS
FENGYUN 1C DEB SSO 2024-05-30 04:16:27 0.0001057494 141.0 (m) DEBRIS

Associated space launch

Military communications satellite. Destroyed in a collision with Iridium 33.

COSMOS 2251 DEB was lifted into orbit during the mission ‘Kosmos-3M | Strela-2M 51’, on board a Kosmos-3M space rocket.

The launch took place on June 16, 1993, 4:17 a.m. from 132/1 (132L).

For more information about the launch, click the button.

Launch to space Kosmos-3M | Strela-2M 51
Kosmos-3M | Strela-2M 51

Agency: N/A

Status: Launch Successful

Launch date: June 16, 1993, 4:17 a.m. UTC

Rocket: Kosmos-3M

Launch pad: 132/1 (132L)

Location: Plesetsk Cosmodrome, Russian Federation

...

Latest news about this satellite

There are no fresh news available about this satellite. Check back as we update our databases every day.


Newsletter sign-up

Weekly statistics, charts and insights to help you stay on top of the space industry.